Lapse_Rate
4.7 5.7 4.7 5.1 4.7 5.0 4.5 3.8 3.7 3.5 3.3 3.5 3.6 3.4 3.1 3.2 3.5 3.5 3.6 4.5 4.7 4.9 5.4 5.7 5.8 5.8 5.7 5.6 5.5 5.3 5.2 5.0 5.0 4.9 4.7 4.7 4.6 4.6 4.6 4.7 4.8 4.9 5.0
5.2 5.5 4.8 4.6 4.7 4.7 4.4 3.9 3.2 2.6 1.9 2.4 2.5 2.8 2.8 3.0 3.0 3.1 3.3 3.8 4.6 4.6 4.9 5.5 5.8 5.9 6.0 6.0 6.0 6.0 5.9 5.7 5.5 5.4 5.3 5.3 5.3 5.1 5.1 5.2 5.2 5.4 5.4
6.3 6.0 4.9 4.5 4.9 4.9 4.4 4.0 3.2 2.7 1.7 1.9 1.2 1.9 2.2 2.4 2.7 2.9 3.1 3.3 3.6 4.3 4.6 5.2 5.9 6.3 6.4 6.5 6.6 6.8 6.8 6.7 6.4 6.1 5.9 5.8 5.7 5.7 5.7 5.7 5.7 5.8 6.1
7.4 6.4 5.4 4.5 4.7 4.5 3.8 2.8 1.8 1.6 0.9 0.3 0.2 0.5 0.5 1.1 1.6 2.3 2.8 3.2 3.4 3.6 4.2 4.5 4.8 5.9 6.4 6.6 6.7 7.0 7.1 7.0 7.0 7.0 6.8 6.6 6.4 6.2 6.2 6.3 6.4 6.4 6.5
7.0 5.9 4.8 4.5 4.4 3.8 2.7 2.7 1.2 0.9 0.6 0.4 0.8 0.4 -0.6 -0.8 -0.0 1.6 1.9 2.7 3.1 3.5 3.7 4.1 4.0 4.4 4.6 5.7 6.7 7.5 7.9 7.9 7.8 7.8 7.9 8.0 7.8 7.3 6.9 6.9 6.9 7.0 7.2
6.8 5.7 4.3 4.0 4.1 2.9 1.9 1.9 1.8 0.7 0.4 -0.5 1.0 0.7 -0.8 -0.9 0.5 0.4 0.9 2.5 3.1 3.4 3.6 3.8 3.9 4.0 3.8 4.6 5.3 6.1 6.9 7.6 9.0 9.3 9.2 9.1 9.0 8.6 8.4 8.6 8.9 8.8 8.8
6.1 5.0 3.9 3.7 3.7 2.5 2.3 2.4 1.9 1.7 1.0 -0.5 0.1 0.5 0.3 -0.0 0.1 -0.5 0.9 1.4 2.0 2.8 3.5 3.4 3.5 3.7 4.2 4.3 4.6 5.3 5.9 6.6 7.1 7.7 9.1 9.3 9.3 9.2 9.2 9.0 9.1 9.2 9.2
5.4 4.6 4.0 3.3 3.2 2.1 2.2 2.0 1.7 1.7 0.9 -0.7 0.2 -0.7 0.4 1.8 0.2 -0.0 -0.3 0.2 0.6 2.0 2.4 3.2 3.5 3.6 3.6 3.6 3.8 4.6 5.3 5.8 6.4 7.0 7.4 8.0 9.1 9.2 9.1 9.0 9.0 8.6 8.6
5.2 4.6 3.9 3.2 2.6 2.3 1.9 1.5 1.3 1.8 1.7 0.2 -0.6 0.8 1.5 1.4 -0.9 0.2 0.4 -0.4 0.0 1.1 1.3 1.6 2.3 2.7 2.6 2.5 2.7 3.0 3.9 4.5 5.7 6.7 7.2 7.6 8.9 9.1 8.9 9.1 9.1 8.3 8.5
3.7 3.7 3.2 2.8 2.3 2.0 1.5 1.4 1.2 0.9 1.0 1.0 0.6 0.5 0.2 1.5 2.1 1.2 0.5 0.5 -0.1 1.2 0.3 1.2 2.0 2.4 2.7 2.5 2.5 2.9 3.3 4.1 5.1 5.9 6.8 7.6 8.0 9.0 9.3 9.3 9.5 8.9 9.0
3.0 3.0 2.7 2.2 1.6 1.5 1.1 0.7 0.4 0.4 0.2 0.4 0.5 0.6 1.1 1.0 1.7 3.2 2.2 1.3 1.0 0.6 0.9 2.3 2.5 2.7 3.3 2.8 2.4 2.7 2.8 3.4 4.3 5.0 5.6 6.5 8.4 9.1 9.4 9.3 9.3 9.2 8.5
1.2 1.7 1.8 1.4 1.3 0.9 0.6 -0.0 -0.1 -0.5 -0.5 -0.5 -0.2 0.2 0.8 1.5 2.1 2.6 2.6 0.9 0.3 -0.3 0.9 1.0 2.0 2.4 2.1 1.5 2.1 2.2 2.2 2.6 3.2 3.9 4.7 5.4 6.1 6.7 7.4 8.7 9.2 9.2 9.0
0.6 0.4 0.9 1.0 -0.0 -0.3 -0.2 -0.3 -1.4 -1.8 -1.4 -1.2 -0.8 -0.5 -0.3 0.1 1.0 1.8 2.2 1.3 1.2 -0.5 -0.3 0.1 1.5 1.5 1.3 1.1 0.9 1.1 0.9 1.7 2.5 3.1 3.9 4.7 4.9 5.1 5.5 6.8 8.5 9.1 9.1
0.1 0.7 0.6 -0.3 -0.3 -0.9 -1.0 -1.2 -1.8 -1.9 -2.0 -2.3 -1.6 -1.1 -0.7 -0.5 0.1 0.7 1.3 1.7 1.4 1.3 -0.3 0.8 -0.0 0.2 0.8 0.6 0.8 1.0 0.6 1.4 2.3 2.9 3.6 4.0 4.0 4.2 4.6 5.5 6.7 9.0 9.1
1.0 0.4 0.3 -0.1 -0.5 -0.6 -1.2 -1.8 -3.0 -2.3 -2.3 -2.1 -1.9 -1.4 -0.6 -0.4 -0.4 0.1 0.7 1.6 2.7 3.5 1.6 -0.2 0.6 0.4 0.4 0.6 0.8 0.8 0.9 1.0 2.0 2.8 3.5 3.9 4.2 4.8 5.6 6.0 6.9 9.0 9.0
0.6 0.4 0.1 0.2 0.0 -1.1 -0.6 -1.3 -2.9 -2.2 -2.1 -1.8 -1.4 -1.0 -0.7 -0.4 -0.3 -0.1 0.3 0.8 1.7 3.5 4.8 1.7 1.0 1.2 0.9 1.1 1.5 1.3 1.2 1.8 1.9 2.5 3.2 3.8 4.2 4.5 5.1 5.8 6.6 7.7 8.2
0.7 0.8 0.7 0.4 0.7 -0.2 -0.5 -1.8 -2.0 -2.5 -1.9 -1.7 -1.4 -0.9 -0.4 -0.2 -0.2 0.1 0.3 0.7 1.2 2.1 3.7 2.8 1.9 2.4 1.5 1.8 2.4 3.9 4.6 4.3 4.2 4.5 6.0 6.0 6.1 6.3 5.9 6.1 6.5 6.7 7.3
0.0 0.1 1.2 0.5 0.5 -0.5 -0.9 -1.2 -1.5 -2.5 -1.9 -1.6 -1.3 -0.7 -0.4 1.0 0.3 0.5 0.4 0.7 0.9 1.4 2.2 3.0 2.4 2.4 2.0 2.1 3.4 4.1 6.5 7.8 8.8 8.4 8.2 8.8 8.5 8.4 8.1 7.6 7.2 7.9 7.3
-0.2 1.4 1.7 0.6 0.0 -1.0 -1.4 -1.2 -2.1 -2.2 -1.7 -1.6 -1.1 -0.6 -0.0 0.3 0.3 0.3 0.3 0.7 1.0 2.1 1.9 2.9 2.4 2.7 3.3 3.2 3.6 4.3 5.7 6.9 7.9 8.5 9.0 9.2 8.9 8.6 8.3 7.8 6.4 6.5 6.7
1.3 1.0 0.9 -0.1 -0.2 -1.0 -0.4 -1.3 -1.8 -1.6 -1.3 -0.9 -0.4 -0.1 0.3 0.5 0.5 0.6 1.4 1.3 2.3 1.9 2.3 3.0 3.5 3.2 3.3 3.4 4.1 4.8 6.1 7.8 7.6 8.3 8.0 7.7 7.5 7.1 6.6 6.4 5.8 6.4 6.2
0.8 0.3 -0.1 -0.4 -0.5 0.4 -0.1 -1.2 -0.9 -0.9 -0.7 -0.3 -0.1 0.3 0.9 1.6 3.0 3.5 3.4 2.0 2.2 2.7 3.0 4.7 4.4 3.9 3.7 4.3 6.6 7.7 7.6 7.8 7.9 7.6 6.4 6.7 5.3 5.5 5.6 5.5 5.9 6.2 6.3
0.1 -0.4 -0.7 -0.5 -0.0 0.5 2.1 2.3 0.5 -0.0 0.2 0.0 -0.0 0.1 0.7 1.9 2.0 2.8 3.3 4.0 4.5 3.8 3.9 5.3 5.9 6.7 6.4 7.7 7.3 7.2 7.3 7.0 6.8 7.1 6.8 5.4 4.8 4.1 4.7 4.9 5.6 6.2 6.0
-1.0 -0.9 -1.1 -1.4 -1.3 0.1 2.7 2.9 1.7 0.4 0.3 0.1 0.3 0.3 0.7 2.1 1.7 1.2 2.1 3.3 3.3 4.2 5.3 5.7 6.2 7.7 8.0 7.5 8.3 7.8 7.3 7.3 6.2 6.1 5.8 5.3 4.1 4.1 4.1 3.7 5.4 6.2 6.2
-1.5 -1.7 -1.5 -1.0 -0.7 1.1 2.9 2.9 1.9 0.3 0.2 0.6 0.8 0.5 0.3 0.2 0.9 2.6 2.4 2.0 2.2 2.9 3.6 4.8 6.3 7.5 7.9 7.9 7.7 7.5 7.4 6.7 5.8 5.6 5.9 5.4 3.5 3.7 2.7 3.0 5.7 6.1 5.8
-1.3 -0.9 -0.7 -0.7 -0.7 -0.0 2.7 2.6 1.2 0.1 0.6 0.5 0.6 1.0 1.1 0.9 2.6 3.8 3.1 2.7 3.4 4.1 5.9 6.9 8.6 8.6 8.7 8.4 8.4 7.6 6.5 6.1 5.7 5.1 4.6 4.0 3.9 3.7 3.0 2.9 3.3 5.6 5.9
-0.3 0.1 -0.2 -0.2 1.4 -0.2 2.5 2.5 2.1 0.9 0.8 0.4 0.4 1.0 2.3 2.9 3.4 4.3 4.8 5.2 6.0 6.5 8.1 7.6 7.7 8.1 8.0 7.8 7.4 6.5 5.7 5.3 5.1 5.8 4.5 4.5 4.6 3.8 4.6 3.4 3.2 3.3 3.9
Wind_Speed
5 5 5 8 7 7 6 6 7 7 8 7 7 6 5 5 4 3 3 4 5 6 6 6 6 7 8 9 10 10 10 10 11 12 12 13 13 14 14 15 15 16 17
10 9 7 6 5 5 6 6 6 6 6 7 7 8 8 8 6 5 5 6 6 6 6 6 7 8 10 11 12 12 12 12 13 13 13 14 14 15 15 16 16 17 17
10 9 9 6 5 5 6 6 6 6 6 7 5 7 7 8 7 5 4 5 7 6 7 9 9 10 11 12 13 14 14 14 14 14 15 15 16 16 17 17 17 18 19
7 9 7 5 4 7 6 5 4 3 3 4 3 4 6 7 7 6 6 7 8 8 10 10 10 11 13 13 14 15 15 16 16 17 17 18 18 19 19 19 19 19 20
8 10 8 6 5 7 5 3 3 2 3 4 4 4 5 4 5 5 7 9 10 11 11 13 14 15 16 17 18 19 18 18 18 19 19 20 20 20 21 21 22 21 21
10 11 9 8 7 6 3 3 3 3 2 3 3 4 4 4 7 7 7 10 12 16 17 17 18 19 17 16 17 19 21 23 23 21 21 21 22 22 23 23 23 24 24
15 14 9 8 6 4 3 2 1 4 4 4 3 3 2 3 6 4 10 9 11 14 16 17 17 17 19 19 20 20 21 21 23 25 26 25 25 25 26 27 27 26 26
14 13 10 6 6 3 3 3 4 1 2 5 2 1 4 4 4 5 4 4 7 12 15 18 18 19 21 20 19 19 20 22 23 23 24 26 29 29 29 30 30 31 29
13 12 9 8 6 5 3 3 3 4 2 4 6 3 3 1 3 3 3 3 6 5 12 14 16 19 19 19 19 19 17 23 25 25 25 26 27 31 30 32 32 33 34
11 11 10 9 8 7 4 3 3 2 2 2 2 3 4 2 1 4 3 4 5 7 6 11 15 17 20 20 21 21 24 28 28 27 28 28 29 30 33 35 36 36 34
9 10 11 11 9 8 6 5 4 4 2 2 2 2 2 3 2 0 4 3 3 2 3 10 11 13 19 20 19 22 29 30 30 30 31 31 31 32 34 36 37 37 37
5 10 12 12 10 9 6 6 6 5 5 4 3 3 2 2 2 2 3 3 5 3 5 2 7 10 15 17 20 24 28 29 30 31 31 32 32 32 33 33 35 37 39
3 5 9 8 7 10 11 11 8 5 5 4 4 3 3 3 1 1 1 3 3 3 3 3 3 9 12 17 18 23 26 25 29 31 32 33 32 33 34 34 35 36 36
5 9 10 10 10 10 13 13 8 6 7 5 7 5 3 3 3 1 1 1 3 3 3 5 2 7 14 17 20 25 21 26 31 33 33 33 33 33 33 34 35 36 36
7 10 11 10 11 11 11 11 4 5 5 4 5 5 2 2 2 2 2 1 2 3 3 4 3 8 20 20 21 22 21 24 30 32 34 33 34 35 35 35 35 35 35
12 11 10 10 9 11 8 9 5 7 6 3 3 5 3 2 3 2 1 0 2 3 4 2 4 10 19 22 25 22 22 26 26 32 35 36 37 37 37 37 36 35 33
13 9 9 10 7 7 7 7 5 6 6 5 4 4 5 3 3 3 2 1 2 3 5 7 4 11 11 10 19 19 23 22 24 30 33 34 36 37 37 36 35 34 34
11 12 10 10 7 7 8 6 5 6 5 5 5 5 5 4 5 4 3 4 3 4 4 12 10 7 9 10 17 9 15 19 24 23 26 33 36 34 34 33 32 32 31
10 9 9 9 7 5 6 6 5 6 5 5 4 5 5 5 5 3 4 4 3 5 6 7 10 8 7 8 10 10 11 14 20 25 27 30 29 34 34 34 33 30 15
8 8 8 7 7 8 6 6 5 5 4 4 4 4 4 4 5 5 5 5 5 6 7 8 10 10 9 9 8 11 12 9 12 19 23 21 29 30 31 31 29 20 10
7 9 8 7 8 6 5 5 4 4 4 4 4 4 5 9 11 10 6 6 6 6 7 8 11 11 10 11 13 11 12 14 13 9 11 12 13 15 18 22 14 9 14
9 7 7 6 5 3 8 7 6 4 4 4 5 5 8 10 10 15 16 16 13 8 10 9 12 13 16 14 13 12 12 12 12 5 12 14 11 9 9 15 18 15 15
8 8 6 6 6 4 7 8 10 5 4 4 5 5 5 8 12 9 13 16 13 17 17 12 14 14 17 15 17 16 15 14 11 13 12 11 3 8 10 18 17 5 17
7 6 6 6 5 4 8 9 9 5 3 4 4 5 5 7 10 11 9 9 9 8 10 9 10 14 14 18 16 15 17 12 11 9 6 4 2 2 6 13 24 19 16
5 5 5 6 6 5 8 8 6 4 3 4 5 8 8 6 15 20 11 11 12 11 18 23 26 29 30 32 29 13 11 8 10 9 2 2 2 2 3 6 14 16 14
6 5 6 5 8 5 6 5 5 1 3 3 4 6 13 15 19 21 12 10 12 13 12 13 11 17 22 20 26 16 8 7 6 5 1 2 2 2 2 2 5 12 12
Wind_Direction
143 121 103 118 109 101 88 69 54 44 37 30 32 27 19 18 12 359 323 317 327 338 344 344 341 342 339 335 330 325 325 326 330 332 333 333 332 330 328 326 326 326 327
145 140 124 112 101 86 79 77 64 45 31 19 13 9 3 5 357 351 341 329 313 305 312 323 330 334 335 333 331 326 322 318 320 320 319 319 320 320 320 320 319 317 317
161 150 141 137 122 94 76 66 44 41 30 10 0 352 354 350 344 345 330 319 328 326 315 316 320 325 329 329 326 324 318 314 310 309 310 312 314 314 314 314 312 312 310
165 143 128 127 122 89 73 58 33 25 19 13 336 331 339 337 337 341 357 2 359 353 343 336 322 315 318 323 323 323 322 315 309 307 307 307 308 308 308 309 309 308 307
145 124 126 111 108 85 67 60 46 50 16 345 322 338 346 354 353 6 19 23 26 21 9 1 355 349 340 330 326 325 323 321 313 309 307 304 302 300 300 301 301 302 302
129 118 119 114 109 92 70 59 67 35 38 338 324 4 19 46 37 35 35 42 47 35 32 29 22 15 8 357 346 334 324 319 316 311 306 303 301 296 292 292 293 295 295
141 137 128 119 111 95 85 56 70 46 13 346 4 5 1 9 42 48 50 59 43 26 22 18 11 5 360 354 350 349 343 337 327 314 308 307 305 301 297 293 290 284 285
147 141 137 125 114 107 77 61 49 57 32 18 75 82 10 334 5 21 49 29 29 13 13 3 0 357 351 349 350 350 352 348 340 332 320 308 303 300 300 296 292 288 284
143 140 130 127 114 103 88 75 67 65 69 25 43 112 45 342 328 335 343 7 12 9 354 352 354 343 347 351 350 348 348 346 336 328 324 320 312 308 300 297 295 291 287
130 133 124 114 103 96 87 79 79 81 104 55 20 39 74 133 67 326 327 350 0 344 342 346 335 343 349 348 349 348 343 338 331 327 322 317 313 308 305 303 302 302 294
120 123 122 111 98 95 92 89 75 74 65 95 64 25 14 36 70 171 288 311 316 314 309 323 322 333 345 349 353 343 340 335 329 327 323 319 316 314 310 304 303 303 304
105 108 112 111 110 101 93 92 90 76 79 76 74 57 67 68 11 354 308 310 310 302 305 273 317 337 356 1 348 338 335 331 328 325 322 318 314 313 310 308 305 304 301
116 117 116 108 98 111 106 97 80 68 62 70 61 67 62 60 34 12 327 323 322 306 318 298 325 6 15 350 335 332 329 328 329 326 324 319 317 314 311 307 306 304 304
131 128 109 100 98 101 102 98 88 83 79 69 65 61 72 55 49 49 69 2 319 311 317 286 330 19 355 329 321 324 318 321 323 324 322 321 319 317 313 310 307 304 304
122 110 106 105 102 94 95 96 92 82 81 70 69 64 72 55 53 57 73 112 169 303 303 313 312 326 324 320 317 316 314 314 317 317 319 318 316 315 314 311 308 304 301
120 116 109 101 93 98 89 84 82 77 77 55 58 61 44 22 25 30 28 287 211 225 274 287 295 305 311 315 316 313 312 313 314 318 317 315 314 313 309 309 308 305 302
129 120 119 110 103 90 90 86 78 77 75 66 40 41 29 6 354 343 334 300 248 221 265 291 266 300 301 301 305 307 316 315 318 313 309 311 314 309 306 304 305 303 301
101 111 112 107 97 100 78 91 81 75 69 56 35 29 14 0 350 332 326 302 262 257 261 298 301 303 295 297 299 304 308 315 308 306 306 311 313 310 305 300 303 302 298
111 95 113 108 118 98 95 83 87 75 66 57 33 17 349 350 335 321 313 296 282 294 290 294 300 304 298 306 305 306 309 312 306 313 312 309 311 315 313 308 302 300 301
117 113 107 113 115 105 118 103 87 79 58 44 24 6 336 327 310 308 303 304 308 300 301 307 309 311 311 315 310 319 316 316 319 318 310 315 316 312 311 311 306 299 283
109 109 111 119 109 137 121 107 102 89 60 29 1 340 326 325 329 331 331 319 313 307 311 315 313 314 318 324 324 321 313 317 313 322 314 319 316 312 308 317 326 319 295
108 120 104 108 117 92 91 89 105 74 42 17 345 337 333 332 335 333 326 322 317 321 313 311 310 308 310 314 312 314 309 308 314 327 320 314 311 310 304 306 300 318 97
112 106 110 109 98 75 85 70 73 53 32 1 341 326 329 329 331 308 307 316 312 313 307 307 305 303 306 310 312 305 306 307 306 315 309 306 314 314 317 311 291 277 99
115 113 106 103 96 66 73 64 54 37 16 349 333 329 318 315 317 324 318 313 307 298 297 299 295 300 296 299 296 298 303 303 301 302 296 284 332 308 320 354 41 60 77
110 104 105 102 95 56 63 48 45 20 5 340 331 328 322 309 315 326 321 311 306 305 312 306 300 300 303 302 305 306 300 304 306 309 255 271 308 306 324 349 7 43 51
109 107 95 84 88 70 50 41 43 35 349 325 313 300 315 322 322 320 316 309 307 313 306 302 303 305 304 296 305 297 293 289 296 302 41 299 306 358 328 349 357 10 16